Regional Weather Roundup
Issued by NWS

Home | Current Version | Previous Version | Text Only | Print | Product List | Glossary Off
Versions: 1 2 3 4 5 6 7 8 9 10 11 12 13 14 15 16 17 18 19 20 21 22 23 24 25 26 27 28 29 30 31 32 33 34 35 36 37 38 39 40 41 42 43 44 45 46 47 48 49 50

000
ASUS43 KLSX 262207
RWRMO

WEATHER SUMMARY FOR MISSOURI
NATIONAL WEATHER SERVICE SPRINGFIELD MO
500 PM CDT THU MAY 26 2016

NOTE: "FAIR" INDICATES FEW OR NO CLOUDS BELOW 12,000 FEET WITH NO
       SIGNIFICANT WEATHER AND/OR OBSTRUCTIONS TO VISIBILITY.
       CURRENT SKY AND/OR WEATHER CONDITIONS ARE NOT AVAILABLE FOR
       CHILLICOTHE AND FARMINGTON.

MOZ001>031-035>038-043-044-053-054-262300-
...NORTHERN AND WESTERN MISSOURI...

CITY           SKY/WX    TMP DP  RH WIND       PRES   REMARKS
KANSAS CTY INT TSTM      62  60  93 NE22G39   29.84R VSB 1
KANSAS C DTWN  CLOUDY    69  63  81 NE20G32   29.74R THUNDER
LEE`S SUMMIT   CLOUDY    73  65  75 E12G18    29.79S THUNDER
ST JOSEPH      TSTM      65  59  81 SE14      29.80F
CHILLICOTHE      N/A     72  59  63 MISG      29.86R
KIRKSVILLE     CLOUDY    76  62  62 NW10      29.81R

$$
MOZ066>068-077>081-088>096-101>105-262300-
...SOUTHWEST MISSOURI...

CITY           SKY/WX    TMP DP  RH WIND       PRES   REMARKS
SPRINGFIELD    CLOUDY    84  69  60 S16       29.82F
JOPLIN         SUNNY     84  73  69 S20G25    29.79F HX  90
BRANSON        CLOUDY    77  70  78 S14       29.91R

$$
MOZ032>034-039>042-045>050-055>058-069>072-262300-
...CENTRAL MISSOURI...

CITY           SKY/WX    TMP DP  RH WIND       PRES   REMARKS
COLUMBIA       CLOUDY    84  69  60 SE12      29.83F
JEFFERSON CITY MOSUNNY   87  66  49 SE14      29.80F
ROLLA          SUNNY     82  68  62 SE14      29.84F
SEDALIA        CLOUDY    81  68  64 E8        29.80F
WHITEMAN AFB   LGT RAIN  75  68  78 NE12      29.79S
WARRENSBURG    CLOUDY    70  66  88 SE15G21   29.87R

$$
MOZ051-052-059>065-262300-
...EAST CENTRAL MISSOURI...

CITY           SKY/WX    TMP DP  RH WIND       PRES   REMARKS
ST LOUIS INTL  MOSUNNY   81  66  60 S13       29.88F
SPIRIT OF STL  MOSUNNY   81  68  64 S10       29.86F
ST CHARLES     MOSUNNY   81  69  67 S9        29.85F

$$
MOZ072>076-082>087-097>100-106>115-262300-
...SOUTH CENTRAL AND SOUTHEAST MISSOURI...

CITY           SKY/WX    TMP DP  RH WIND       PRES   REMARKS
CAPE GIRARDEAU CLOUDY    68  65  90 SE12      29.95R
FARMINGTON     SUNNY     76  67  73 S14G20    29.93F
POPLAR BLUFF   CLOUDY    74  68  81 SE13      29.93F
WEST PLAINS    MOSUNNY   82  69  64 S13G21    29.90F

$$



USA.gov is the U.S. government's official web portal to all federal, state and local government web resources and services.